GW5385 Weather Reports


time (UTC)temp
F
wind
direction
speed
knots
gust
knots
rain 1hr
in
rain 24hr
in
rain mn
in
humidity
%
barometer
mb
20260506131552 28 346 0.0 0.0 0.00 0.00 0.00 64 1018.3
20260506130050 26 346 0.0 0.9 0.00 0.00 0.00 65 1018.5
20260506124542 24 350 0.0 0.9 0.00 0.00 0.00 68 1018.7
20260506123040 21 350 0.0 0.9 0.00 0.00 0.00 70 1018.7
20260506121542 20 2 0.0 2.6 0.00 0.00 0.00 72 1018.8
20260506120039 19 320 0.0 0.0 0.00 0.00 0.00 74 1018.9
20260506114534 18 323 0.0 0.0 0.00 0.00 0.00 73 1019.0
20260506113042 18 324 0.0 0.0 0.00 0.00 0.00 74 1019.1
20260506111531 18 300 0.0 0.0 0.00 0.00 0.00 71 1019.4
20260506110034 19 286 0.0 0.0 0.00 0.00 0.00 73 1019.5
20260506104525 18 294 0.0 0.0 0.00 0.00 0.00 72 1019.6
20260506103030 18 294 0.0 0.0 0.00 0.00 0.00 72 1019.7
20260506101533 19 294 0.0 0.0 0.00 0.00 0.00 71 1019.8
20260506100030 19 294 0.0 0.9 0.00 0.00 0.00 71 1020.1
20260506094519 19 300 0.0 0.9 0.00 0.00 0.00 71 1020.2
20260506093018 19 300 0.0 1.7 0.00 0.00 0.00 71 1020.3
20260506091518 18 293 0.0 0.0 0.00 0.00 0.00 71 1020.3
20260506090012 19 293 0.0 0.0 0.00 0.00 0.00 68 1020.4
20260506084510 20 293 0.0 1.7 0.00 0.00 0.00 68 1020.5
20260506083009 20 277 0.0 0.0 0.00 0.00 0.00 68 1020.6
20260506081502 20 295 0.0 0.0 0.00 0.00 0.00 69 1020.7
20260506073055 21 288 0.0 0.0 0.00 0.00 0.00 65 1021.0
20260506071554 22 288 0.0 0.0 0.00 0.00 0.00 65 1021.0
20260506061543 23 260 0.0 0.0 0.00 0.00 0.00 61 1021.3
20260506044533 25 286 0.0 0.9 0.00 0.00 0.00 57 1021.4
20260506043028 26 286 0.9 0.9 0.00 0.00 0.00 56 1021.4
20260506041527 27 293 0.0 0.9 0.00 0.00 0.00 55 1021.5
20260506040035 27 297 0.0 0.9 0.00 0.00 0.00 52 1021.6
20260506034522 29 297 0.0 0.9 0.00 0.00 0.00 50 1021.4
20260506033050 30 357 0.0 0.9 0.00 0.00 0.00 48 1021.4
20260506031547 33 328 0.0 0.9 0.00 0.00 0.00 46 1021.3
20260506030015 37 360 0.9 2.6 0.00 0.00 0.00 42 1021.2
20260506024515 39 18 1.7 2.6 0.00 0.00 0.00 40 1021.3
20260506023056 42 7 1.7 5.2 0.00 0.00 0.00 38 1021.3
20260506021554 44 25 6.1 9.6 0.00 0.00 0.00 36 1021.1
20260506020042 44 22 7.0 10.4 0.00 0.00 0.00 36 1021.0
20260506014544 45 22 8.7 14.8 0.00 0.00 0.00 35 1021.0
20260506013039 46 352 7.8 13.9 0.00 0.00 0.00 34 1021.0
20260506011539 46 25 10.4 15.6 0.00 0.00 0.00 33 1020.9
20260506010047 47 36 11.3 16.5 0.00 0.00 0.00 33 1020.8
20260506004539 48 346 8.7 15.6 0.00 0.00 0.00 32 1020.8
20260506003036 48 22 11.3 17.4 0.00 0.00 0.00 33 1020.7
20260506001635 48 20 12.2 16.5 0.00 0.00 0.00 33 1020.7
20260506000032 49 347 7.0 18.2 0.00 0.00 0.00 32 1020.6
20260505234554 49 16 14.8 21.7 0.00 0.00 0.00 32 1020.7
20260505233037 49 338 7.0 17.4 0.00 0.00 0.00 32 1020.7
20260505231532 49 337 10.4 20.0 0.00 0.00 0.00 32 1020.7
20260505224558 49 12 12.2 17.4 0.00 0.00 0.00 32 1020.7
20260505223055 49 323 10.4 15.6 0.00 0.00 0.00 32 1020.8
20260505221555 49 327 9.6 16.5 0.00 0.00 0.00 31 1020.8
20260505220053 49 327 7.0 17.4 0.00 0.00 0.00 31 1020.7
20260505214613 49 338 10.4 17.4 0.00 0.00 0.00 30 1020.6
20260505213059 49 332 9.6 19.1 0.00 0.00 0.00 32 1020.6
20260505211549 49 352 8.7 20.0 0.00 0.00 0.00 33 1020.7
20260505210056 49 5 13.0 18.2 0.00 0.00 0.00 32 1020.7
20260505204556 49 311 6.1 20.9 0.00 0.00 0.00 34 1020.9
20260505203051 49 328 10.4 19.1 0.00 0.00 0.00 35 1021.0
20260505201545 49 345 12.2 18.2 0.00 0.00 0.00 35 1021.1
20260505200058 48 340 12.2 20.9 0.00 0.00 0.00 35 1021.2
20260505194548 49 4 12.2 19.1 0.00 0.00 0.00 35 1021.2
20260505193010 49 338 10.4 19.1 0.00 0.00 0.00 35 1021.1
20260505191509 47 310 11.3 20.0 0.00 0.00 0.00 33 1021.2
20260505190005 48 10 10.4 21.7 0.00 0.00 0.00 37 1021.3
20260505184505 48 332 11.3 19.1 0.00 0.00 0.00 37 1021.2
20260505183010 48 328 9.6 18.2 0.00 0.00 0.00 37 1021.3
20260505181503 47 350 7.8 16.5 0.00 0.00 0.00 37 1021.3
20260505180109 47 331 7.8 17.4 0.00 0.00 0.00 39 1021.3
20260505174605 47 326 9.6 15.6 0.00 0.00 0.00 40 1021.2
20260505173057 46 303 9.6 18.2 0.00 0.00 0.00 39 1021.3
20260505171556 46 348 8.7 20.9 0.00 0.00 0.00 45 1021.4
20260505170051 46 314 9.6 20.9 0.00 0.00 0.00 43 1021.4
20260505164550 44 347 9.6 16.5 0.00 0.00 0.00 46 1021.5
20260505163052 44 342 9.6 16.5 0.00 0.00 0.00 45 1021.6
20260505161549 44 345 7.0 13.9 0.00 0.00 0.00 51 1021.6
20260505153041 42 356 7.0 11.3 0.00 0.00 0.00 52 1021.8
20260505151535 40 324 4.3 11.3 0.00 0.00 0.00 59 1021.7